TimeEST,TemperatureF,Dew PointF,Humidity,Sea Level PressureIn,VisibilityMPH,Wind Direction,Wind SpeedMPH,Gust SpeedMPH,PrecipitationIn,Events,Conditions,WindDirDegrees,DateUTC
12:53 AM,66.0,64.9,96,29.97,10.0,ENE,3.5,-,N/A,,Clear,60,2012-12-08 05:53:00
1:53 AM,68.0,66.9,96,29.97,10.0,East,3.5,-,N/A,,Clear,90,2012-12-08 06:53:00
2:53 AM,66.9,66.0,97,29.96,10.0,Calm,Calm,-,N/A,,Clear,0,2012-12-08 07:53:00
3:53 AM,66.9,66.0,97,29.96,10.0,NE,3.5,-,N/A,,Clear,50,2012-12-08 08:53:00
4:53 AM,66.9,66.9,100,29.96,10.0,ENE,3.5,-,N/A,,Clear,70,2012-12-08 09:53:00
5:53 AM,68.0,66.9,96,29.98,10.0,NE,3.5,-,N/A,,Overcast,50,2012-12-08 10:53:00
6:53 AM,69.1,68.0,96,29.99,10.0,NE,3.5,-,N/A,,Scattered Clouds,40,2012-12-08 11:53:00
7:53 AM,72.0,71.1,97,30.01,10.0,Calm,Calm,-,N/A,,Overcast,0,2012-12-08 12:53:00
8:53 AM,75.9,72.0,87,30.03,10.0,East,4.6,-,N/A,,Scattered Clouds,90,2012-12-08 13:53:00
9:53 AM,77.0,71.1,82,30.03,10.0,East,10.4,-,0.01,Rain,Light Rain,100,2012-12-08 14:53:00
10:33 AM,78.8,71.6,78,30.03,10.0,East,11.5,-,0.00,Rain,Light Rain,100,2012-12-08 15:33:00
10:53 AM,79.0,71.1,77,30.02,10.0,East,13.8,-,0.00,,Mostly Cloudy,100,2012-12-08 15:53:00
11:25 AM,80.6,69.8,70,30.01,10.0,SE,10.4,-,N/A,,Mostly Cloudy,130,2012-12-08 16:25:00
11:53 AM,80.1,70.0,71,30.00,10.0,ESE,11.5,17.3,N/A,,Mostly Cloudy,110,2012-12-08 16:53:00
12:53 PM,81.0,70.0,69,29.97,10.0,ESE,10.4,-,N/A,,Mostly Cloudy,120,2012-12-08 17:53:00
1:53 PM,81.0,70.0,69,29.96,10.0,ESE,10.4,-,N/A,,Scattered Clouds,120,2012-12-08 18:53:00
2:29 PM,78.8,71.6,78,29.97,10.0,ESE,9.2,-,N/A,,Mostly Cloudy,120,2012-12-08 19:29:00
2:37 PM,78.8,71.6,78,29.97,10.0,ESE,10.4,-,N/A,,Scattered Clouds,120,2012-12-08 19:37:00
2:53 PM,79.0,71.1,77,29.97,10.0,ESE,10.4,-,N/A,,Scattered Clouds,120,2012-12-08 19:53:00
3:53 PM,78.1,71.1,79,29.97,10.0,ESE,9.2,-,N/A,,Scattered Clouds,120,2012-12-08 20:53:00
4:53 PM,78.1,71.1,79,29.97,10.0,ESE,9.2,-,N/A,,Scattered Clouds,110,2012-12-08 21:53:00
5:53 PM,77.0,72.0,84,29.99,10.0,ESE,5.8,-,N/A,,Scattered Clouds,110,2012-12-08 22:53:00
6:53 PM,75.0,72.0,90,30.01,10.0,East,3.5,-,N/A,,Clear,100,2012-12-08 23:53:00
7:53 PM,73.9,72.0,93,30.02,10.0,East,6.9,-,N/A,,Scattered Clouds,100,2012-12-09 00:53:00
8:53 PM,73.0,70.0,90,30.03,10.0,East,4.6,-,0.00,,Mostly Cloudy,80,2012-12-09 01:53:00
9:07 PM,71.6,69.8,94,30.03,10.0,Calm,Calm,-,N/A,,Scattered Clouds,0,2012-12-09 02:07:00
9:53 PM,73.9,72.0,93,30.04,10.0,ESE,8.1,-,N/A,,Clear,120,2012-12-09 02:53:00
10:53 PM,73.9,72.0,93,30.04,10.0,ESE,5.8,-,N/A,,Clear,120,2012-12-09 03:53:00
11:53 PM,73.0,71.1,93,30.03,10.0,ESE,3.5,-,N/A,,Clear,110,2012-12-09 04:53:00